Weather History for Champaign, IL

Change the Weather History Date:

Sunday, March 9, 2014

  Actual Average Record
Temperature  
Mean Temperature 36 °F 38 °F  
Max Temperature 47 °F 47 °F 61 °F (2002)
Min Temperature 24 °F 29 °F 14 °F (2003)
Degree Days  
Heating Degree Days 29 27  
Month to date heating degree days 348 258  
Since 1 July heating degree days 5429 4760  
Cooling Degree Days 0 0  
Month to date cooling degree days 0 0  
Year to date cooling degree days 0 0  
Moisture  
Dew Point 28 °F    
Average Humidity 75    
Maximum Humidity 92    
Minimum Humidity 58    
Precipitation  
Precipitation 0.00 in 0.06 in 1.25 in (2006)
Month to date precipitation 0.06 0.57  
Year to date precipitation 2.81 4.64  
Sea Level Pressure  
Sea Level Pressure 30.19 in    
Wind  
Wind Speed 11 mph (SW)    
Max Wind Speed 21 mph    
Max Gust Speed 26 mph    
Visibility 6 miles    
Events      
T = Trace of Precipitation, MM = Missing Value Source: NWS Daily Summary

Daily Weather History Graph

Daily Weather History Graph

Search for Another Location

Airport:

Trip Planner

Search our weather history database for the weather conditions in past years. The results will help you decide how hot, cold, wet, or windy it might be!

Date:

Astronomy

Mar. 09, 2014 Rise Set
Actual Time 7:14 AM CDT 6:53 PM CDT
Civil Twilight 6:47 AM CDT 7:20 PM CDT
Nautical Twilight 6:15 AM CDT 7:52 PM CDT
Astronomical Twilight 5:44 AM CDT 8:23 PM CDT
Moon 12:46 PM CDT (3/9) 3:39 AM CDT (3/9)
Length of Visible Light 12h 33m
Length of Day
11h 39m
First Quarter, 61% of the Moon is Illuminated
Mar 9
First Quarter
Mar 16
Full
Mar 23
Last Quarter
Mar 30
New
Apr 7
First Quarter

Hourly Weather History & Observations

Time (CDT) Temp. Windchill Dew Point Humidity Pressure Visibility Wind Dir Wind Speed Gust Speed Precip Events Conditions
12:03 AM 28.9 °F 22.8 °F 26.1 °F 89% 30.26 in 6.0 mi NNW 5.8 mph - N/A   Mostly Cloudy
12:53 AM 30.9 °F 24.3 °F 26.1 °F 82% 30.29 in 8.0 mi NW 6.9 mph - N/A   Overcast
1:28 AM 28.0 °F 21.7 °F 21.9 °F 78% 30.26 in 9.0 mi NNW 5.8 mph - N/A   Scattered Clouds
1:53 AM 24.1 °F 16.0 °F 19.9 °F 84% 30.30 in 8.0 mi NNW 6.9 mph - N/A   Clear
3:53 AM 28.0 °F 22.8 °F 23.0 °F 81% 30.29 in 8.0 mi West 4.6 mph - N/A   Clear
4:53 AM 26.1 °F 20.5 °F 25.0 °F 96% 30.29 in 5.0 mi SW 4.6 mph - N/A   Clear
5:53 AM 26.1 °F 19.4 °F 25.0 °F 96% 30.30 in 4.0 mi WSW 5.8 mph - N/A   Clear
6:53 AM 26.1 °F 21.9 °F 25.0 °F 96% 30.30 in 3.0 mi SW 3.5 mph - N/A   Partly Cloudy
7:10 AM 26.1 °F 20.5 °F 25.0 °F 96% 30.27 in 2.5 mi SW 4.6 mph - N/A   Clear
7:22 AM 26.1 °F 20.5 °F 25.0 °F 96% 30.26 in 1.5 mi SSW 4.6 mph - N/A   Clear
7:53 AM 27.0 °F 21.6 °F 25.0 °F 92% 30.30 in 1.8 mi SSW 4.6 mph - N/A   Clear
8:17 AM 28.9 °F 22.8 °F 28.0 °F 96% 30.28 in 2.0 mi SSW 5.8 mph - N/A   Clear
8:53 AM 30.9 °F 24.3 °F 28.9 °F 92% 30.31 in 3.0 mi SW 6.9 mph - N/A   Clear
9:53 AM 34.0 °F 26.6 °F 28.0 °F 79% 30.30 in 5.0 mi SW 9.2 mph - N/A   Haze
10:37 AM 36.0 °F 26.7 °F 28.9 °F 76% 30.27 in 5.0 mi WSW 15.0 mph - N/A   Haze
10:50 AM 35.6 °F 26.6 °F 28.4 °F 75% 30.26 in 5.0 mi SW 13.8 mph - N/A   Haze
10:53 AM 37.0 °F 28.1 °F 28.9 °F 73% 30.28 in 5.0 mi SW 15.0 mph - N/A   Haze
11:53 AM 37.9 °F 29.6 °F 28.0 °F 68% 30.25 in 7.0 mi SW 13.8 mph - N/A   Mostly Cloudy
12:05 PM 39.9 °F 31.4 °F 28.9 °F 65% 30.23 in 8.0 mi SW 16.1 mph - N/A   Scattered Clouds
12:53 PM 39.9 °F 31.4 °F 30.0 °F 68% 30.23 in 8.0 mi SW 16.1 mph - N/A   Scattered Clouds
1:53 PM 43.0 °F 35.4 °F 30.9 °F 62% 30.19 in 8.0 mi SSW 16.1 mph - N/A   Scattered Clouds
2:53 PM 45.0 °F 37.9 °F 30.9 °F 58% 30.14 in 9.0 mi SW 16.1 mph 24.2 mph N/A   Clear
3:53 PM 46.0 °F 39.0 °F 33.1 °F 61% 30.11 in 9.0 mi SW 17.3 mph - N/A   Clear
4:53 PM 46.9 °F - 32.0 °F 56% 30.08 in 9.0 mi SW 17.3 mph - N/A   Clear
5:53 PM 44.1 °F 37.4 °F 33.1 °F 65% 30.06 in 7.0 mi SSW 13.8 mph - N/A   Clear
6:53 PM 39.9 °F 32.9 °F 32.0 °F 73% 30.04 in 6.0 mi SSW 11.5 mph - N/A   Haze
7:53 PM 36.0 °F 28.5 °F 30.9 °F 82% 30.03 in 6.0 mi South 10.4 mph - N/A   Haze
8:53 PM 36.0 °F 28.0 °F 30.9 °F 82% 30.01 in 5.0 mi South 11.5 mph - N/A   Haze
9:53 PM 36.0 °F 27.1 °F 30.9 °F 82% 29.99 in 4.0 mi South 13.8 mph - N/A   Haze
10:53 PM 37.0 °F 27.4 °F 30.9 °F 79% 29.98 in 5.0 mi SSW 17.3 mph - N/A   Haze
11:53 PM 36.0 °F 27.1 °F 30.9 °F 82% 29.96 in 6.0 mi SSW 13.8 mph - N/A   Haze
12:53 AM 37.0 °F 28.5 °F 32.0 °F 82% 29.94 in 6.0 mi SW 13.8 mph - N/A   Haze